Location: Newark
(46.4800°N, 89.7900°W)
Time: 18:03:29
(UTC+00:00)

N. Korean satellite - Visible Passes

Search period start: 27 January 2020 00:00
Search period end: 06 February 2020 00:00
Orbit: 454 x 507 km, 97.2° (Epoch: 27 January)

Date Brightness Start Highest point End Pass type
(mag) Time Alt. Az. Time Alt. Az. Time Alt. Az.
27 Jan 8.9 11:10:49 10° NE 11:13:50 25° E 11:16:53 10° SSE visible
27 Jan 7.7 12:44:13 10° NNW 12:47:10 24° WNW 12:50:07 10° WSW visible
27 Jan 8.2 23:21:50 10° SSW 23:25:03 39° W 23:28:19 10° NNW visible
28 Jan 9.9 10:46:21 10° ENE 10:48:10 13° E 10:49:59 10° ESE visible
28 Jan 6.8 12:18:20 10° N 12:21:48 46° WNW 12:25:17 10° SSW visible
29 Jan 6.6 11:52:42 10° NNE 11:56:20 84° ESE 11:59:58 10° SSW visible
30 Jan 10.0 00:06:09 10° WSW 00:07:41 12° W 00:09:14 10° WNW visible
30 Jan 8.0 11:27:21 10° NNE 11:30:47 40° E 11:34:15 10° S visible
30 Jan 9.2 23:39:08 10° SSW 23:41:58 24° W 23:44:52 10° NW visible
31 Jan 9.3 11:02:22 10° NE 11:05:09 21° E 11:07:58 10° SE visible
31 Jan 7.4 12:35:23 10° N 12:38:34 30° WNW 12:41:47 10° SW visible
01 Feb 10.2 10:38:29 10° ENE 10:39:26 11° E 10:40:23 10° ESE visible
01 Feb 6.6 12:09:35 10° N 12:13:10 59° WNW 12:16:47 10° SSW visible
02 Feb 7.0 11:44:03 10° NNE 11:47:41 66° E 11:51:21 10° S visible
02 Feb 9.8 23:56:46 10° SW 23:58:56 16° W 00:01:07 10° NW visible
03 Feb 8.5 11:18:47 10° NNE 11:22:07 32° E 11:25:26 10° SSE visible
04 Feb 9.6 10:53:59 10° NE 10:56:27 17° E 10:58:54 10° SE visible
04 Feb 7.1 12:26:33 10° N 12:29:57 37° WNW 12:33:23 10° SW visible
05 Feb 6.5 12:00:52 10° N 12:04:32 76° WNW 12:08:13 10° SSW visible
